Header for Extended Forecast Station List Page

Search by: ID | Name | Date | Parm | Value | Avg | % Avg
Sort by: ID | Name | Date | Parm | Value | Avg | % Avg

Enter search or view all records.

Click on id for station plot
#IDNameDateParmValueAvg% Avg
0LEOI1KOOTENAI-AT LEONIA01-25-2021DISCHARGE (KAF)30182402126
1FCFM8NF FLATHEAD-NEAR COLUMBIA FALLS01-25-2021DISCHARGE (KAF)57464389
2WGCM8MF FLATHEAD-NEAR WEST GLACIER01-25-2021DISCHARGE (KAF)56161591
3CFMM8FLATHEAD-AT COLUMBIA FALLS01-25-2021DISCHARGE (KAF)2026214095
4DLGM8CLARK FORK-AT DEER LODGE01-25-2021DISCHARGE (KAF)7570107
5DRMM8CLARK FORK-NR DRUMMOND01-25-2021DISCHARGE (KAF)158MM
6RCCM8ROCK CREEK-NEAR CLINTON01-25-2021DISCHARGE (KAF)113105108
7BONM8BLACKFOOT-NEAR BONNER01-25-2021DISCHARGE (KAF)36738396
8ABOM8CLARK FORK-ABOVE MISSOULA01-25-2021DISCHARGE (KAF)66273590
9BITM8BITTERROOT-NEAR MISSOULA01-25-2021DISCHARGE (KAF)48552393
10BELM8CLARK FORK-BELOW MISSOULA01-25-2021DISCHARGE (KAF)1148127090
11STRM8ST. REGIS-NEAR ST. REGIS01-25-2021DISCHARGE (KAF)14417881
12SRGM8CLARK FORK-AT ST REGIS01-25-2021DISCHARGE (KAF)1517177885
13PRTI1PRIEST-NEAR PRIEST RIVER01-25-2021DISCHARGE (KAF)554493112
14SPOW1SPOKANE-AT SPOKANE01-25-2021DISCHARGE (KAF)2290MM
15SATI1ST MARIES-NEAR SANTA01-25-2021DISCHARGE (KAF)155140110
16CIBW1COLUMBIA-AT INTL BOUNDARY01-25-2021DISCHARGE (KAF)19978MM
17LAUW1KETTLE-AT LAURIER01-25-2021DISCHARGE (KAF)74789184
18TONW1OKANOGAN-NEAR TONASKET01-25-2021DISCHARGE (KAF)62965896
19PATW1METHOW-NEAR PATEROS01-25-2021DISCHARGE (KAF)400344117
20ARDW1ENTIAT-NEAR ARDENVOIR01-25-2021DISCHARGE (KAF)7573103
21PESW1WENATCHEE-AT PESHASTIN01-25-2021DISCHARGE (KAF)711705101
22EASW1YAKIMA-AT EASTON01-25-2021DISCHARGE (KAF)9810098
23TNAW1TEANAWAY-BELOW FORKS01-25-2021DISCHARGE (KAF)151119127
24UMTW1YAKIMA-AT UMTANUM01-25-2021DISCHARGE (KAF)554525106
25CLFW1NACHES-NEAR CLIFFDEL01-25-2021DISCHARGE (KAF)254240106
26NACW1NACHES-NEAR NACHES01-25-2021DISCHARGE (KAF)322289112
27PARW1YAKIMA-NEAR PARKER01-25-2021DISCHARGE (KAF)62262899
28KIOW1YAKIMA-AT KIONA01-25-2021DISCHARGE (KAF)90098192
29CHEI1FALL RIVER-NEAR CHESTER01-25-2021DISCHARGE (KAF)196195100
30ANTI1HENRYS FORK-AT ST. ANTHONY01-25-2021DISCHARGE (KAF)45149691
31TEAI1TETON-NEAR ST. ANTHONY01-25-2021DISCHARGE (KAF)14516389
32REXI1HENRYS FORK-AT REXBURG01-25-2021DISCHARGE (KAF)49057186
33JKSW4SNAKE-NEAR JACKSON01-25-2021DISCHARGE (KAF)39553973
34ALPW4SNAKE-NEAR ALPINE01-25-2021DISCHARGE (KAF)54673075
35HEII1SNAKE-NEAR HEISE01-25-2021DISCHARGE (KAF)13161254105
36SIFI1SNAKE-AB EAGLE ROCK NR IDAHO FALLS01-25-2021DISCHARGE (KAF)1375138799
37SHYI1SNAKE-NEAR SHELLEY01-25-2021DISCHARGE (KAF)1302141692
38SNAI1SNAKE-AT BLACKFOOT01-25-2021DISCHARGE (KAF)1112124090
39BFTI1SNAKE-NEAR BLACKFOOT01-25-2021DISCHARGE (KAF)1083126586
40PIHI1PORTNEUF-AT POCATELLO01-25-2021DISCHARGE (KAF)6110061
41MILI1SNAKE-AT MILNER01-25-2021DISCHARGE (KAF)487516
42HOTI1BRUNEAU-NEAR HOT SPRINGS01-25-2021DISCHARGE (KAF)4912041
43SWAI1SNAKE-BELOW SWAN FALLS01-25-2021DISCHARGE (KAF)1766274064
44HWRI1BIG LOST-AT HOWELL RANCH NEAR CHILLY01-25-2021DISCHARGE (KAF)274658
45HALI1BIG WOOD-AT HAILEY01-25-2021DISCHARGE (KAF)539855
46BIGI1BOISE-AT GLENWOOD BRIDGE01-25-2021DISCHARGE (KAF)317249127
47PARI1BOISE-NEAR PARMA01-25-2021DISCHARGE (KAF)397360110
48EMMI1PAYETTE-NEAR EMMETT01-25-2021DISCHARGE (KAF)67883481
49WSRI1WEISER-NEAR WEISER01-25-2021DISCHARGE (KAF)400385104
50WEII1SNAKE-AT WEISER01-25-2021DISCHARGE (KAF)3517503270
51WHBI1SALMON-AT WHITEBIRD01-25-2021DISCHARGE (KAF)1845245475
52TRYO3GRANDE RONDE-TROY01-25-2021DISCHARGE (KAF)11221011111
53ANAW1SNAKE-NEAR ANATONE01-25-2021DISCHARGE (KAF)6774986969
54ORFI1CLEARWATER-AT OROFINO01-25-2021DISCHARGE (KAF)2630279194
55SPDI1CLEARWATER-AT SPALDING01-25-2021DISCHARGE (KAF)47084717100
56TCHW1WALLA WALLA-NEAR TOUCHET01-25-2021DISCHARGE (KAF)220219100
57GIBO3UMATILLA-NEAR GIBBON01-25-2021DISCHARGE (KAF)10283123
58PDTO3UMATILLA-AT PENDLETON01-25-2021DISCHARGE (KAF)227198115
59MYKO3MCKAY CREEK-NEAR PILOT ROCK01-25-2021DISCHARGE (KAF)314174
60UMAO3UMATILLA-NEAR UMATILLA01-25-2021DISCHARGE (KAF)210176119
61MONO3NF JOHN DAY-AT MONUMENT01-25-2021DISCHARGE (KAF)48555987
62SERO3JOHN DAY-AT SERVICE CK01-25-2021DISCHARGE (KAF)66082180
63MODO3DESCHUTES-AT MOODY NR BIGGS01-25-2021DISCHARGE (KAF)1468160491
64PITW1KLICKITAT-NEAR PITT01-25-2021DISCHARGE (KAF)47650994
65HODO3HOOD-NEAR TUCKER BRIDGE01-25-2021DISCHARGE (KAF)315289109
66UNDW1WHITE SALMON-NEAR UNDERWOOD01-25-2021DISCHARGE (KAF)358357100
67LYDM8KOOTENAI-LIBBY DAM01-25-2021INFLOW (KAF)1708192189
68HHWM8SF FLATHEAD-HUNGRY HORSE DAM01-25-2021INFLOW (KAF)83388694
69KERM8FLATHEAD-SELI’Š KSANKA QLISPE’ DAM01-25-2021INFLOW (KAF)2317274684
70NOXM8CLARK FORK-NOXON RAPIDS DAM01-25-2021INFLOW (KAF)4234544778
71CABI1CLARK FORK-CABINET GORGE DAM01-25-2021INFLOW (KAF)4719570683
72ALFW1PEND OREILLE-ALBENI FALLS DAM01-25-2021INFLOW (KAF)5903697085
73COEI1COEUR D ALENE-COEUR D ALENE LAKE01-25-2021INFLOW (KAF)2425248398
74LLKW1SPOKANE-AT LONGLAKE01-25-2021INFLOW (KAF)2621294089
75GCDW1COLUMBIA-GRAND COULEE DAM01-25-2021INFLOW (KAF)2348622410105
76CHJW1COLUMBIA-CHIEF JOSEPH DAM01-25-2021INFLOW (KAF)237342537094
77WELW1COLUMBIA-WELLS DAM01-25-2021INFLOW (KAF)247422634794
78CHDW1CHELAN-LAKE CHELAN DAM01-25-2021INFLOW (KAF)39242193
79RRHW1COLUMBIA-ROCKY REACH DAM01-25-2021INFLOW (KAF)251382672494
80WANW1COLUMBIA-WANAPUM DAM01-25-2021INFLOW (KAF)2584125339102
81PRWW1COLUMBIA-PRIEST RAPIDS DAM01-25-2021INFLOW (KAF)2583925631101
82KEDW1YAKIMA-KEECHELUS LAKE01-25-2021INFLOW (KAF)10784127
83KADW1KACHESS-KACHESS DAM01-25-2021INFLOW (KAF)9881121
84CLUW1CLE ELUM-CLE ELUM LAKE01-25-2021INFLOW (KAF)266223120
85BUDW1BUMPING-BUMPING LAKE DAM01-25-2021INFLOW (KAF)7564117
86RILW1TIETON-RIMROCK LAKE NEAR RIMROCK01-25-2021INFLOW (KAF)11611799
87IPDI1HENRYS FORK-ISLAND PARK DAM01-25-2021INFLOW (KAF)13815092
88JLKW4SNAKE-JACKSON LAKE AT DAM01-25-2021INFLOW (KAF)22326185
89PLDI1SF SNAKE-PALISADES DAM01-25-2021INFLOW (KAF)935120578
90RIDI1WILLOW CREEK-RIRIE DAM01-25-2021INFLOW (KAF)223759
91AFRI1SNAKE-AMERICAN FALLS RESERVOIR01-25-2021INFLOW (KAF)1652196884
92MACI1BIG LOST-MACKAY RESERVOIR NEAR MACKAY01-25-2021INFLOW (KAF)313881
93MAGI1BIG WOOD-MAGIC DAM01-25-2021INFLOW (KAF)6715344
94LWRI1LITTLE WOOD-LITTLE WOOD DAM01-25-2021INFLOW (KAF)364973
95OWYO3OWYHEE-OWYHEE DAM01-25-2021INFLOW (KAF)21034561
96ARAI1SF BOISE-ANDERSON RANCH DAM01-25-2021INFLOW (KAF)26030685
97LUCI1BOISE-LUCKY PEAK DAM01-25-2021INFLOW (KAF)776MM
98WRMO3MALHEUR-WARM SPRINGS DAM01-25-2021INFLOW (KAF)657686
99BERO3MALHEUR-AGENCY VALLEY DAM01-25-2021INFLOW (KAF)335066
100BULO3BULLY CREEK-BULLY CREEK DAM01-25-2021INFLOW (KAF)159160
101CSDI1NF PAYETTE-CASCADE DAM01-25-2021INFLOW (KAF)282279101
102DEDI1DEADWOOD-NEAR LOWMAN01-25-2021INFLOW (KAF)526087
103BRNI1SNAKE-BROWNLEE DAM01-25-2021INFLOW (KAF)3979540774
104DWRI1NF CLEARWATER-DWORSHAK DAM01-25-2021INFLOW (KAF)20971945108
105LGDW1SNAKE-LOWER GRANITE DAM01-25-2021INFLOW (KAF)114821457879
106LGSW1SNAKE-LITTLE GOOSE DAM01-25-2021INFLOW (KAF)114821463278
107LMNW1SNAKE-LOWER MONUMENTAL DAM01-25-2021INFLOW (KAF)116861489378
108IHDW1SNAKE-ICE HARBOR DAM01-25-2021INFLOW (KAF)116861473379
109MCDW1COLUMBIA-MCNARY DAM01-25-2021INFLOW (KAF)385534262990
110JDAO3COLUMBIA-JOHN DAY DAM01-25-2021INFLOW (KAF)406704508190
111TDAO3COLUMBIA-THE DALLES DAM01-25-2021INFLOW (KAF)411394645489
112BONO3COLUMBIA-BONNEVILLE DAM01-25-2021INFLOW (KAF)422574919486
113HOPI1PEND OREILLE-PEND OREILLE LAKE NR HOPE01-25-2021LAKE ELEVATION (FT)MMM
114BFEI1KOOTENAI-AT BONNERS FERRY01-25-2021STAGE (FT)MMM
115SJMI1ST JOE-AT ST MARIES01-25-2021STAGE (FT)MMM